sat.trackr.live / text

‹ back to catalog

STARLINK-36991

NORAD 68011 · 2026-039AB

PAYLOAD ACTIVE UNKNOWN

§ Identity

Operator
Country
US
Launch date
2026-02-27
Launch site
AFETR
Launch vehicle
Mass (kg)
RCS (m²)

Purposes: comms

External: N2YO · Heavens-Above · Gunter

§ Orbital elements

Epoch: 2026-09-19T16:12:47.341152Z

Period
94.27 min
Inclination
43.0005°
Eccentricity
0.0000744
Mean motion
15.27595236 rev/d
Perigee alt
482.5 km
Apogee alt
483.5 km
Semi-major
6,861.1 km
B*
5.3878e-4
RAAN
33.1854°
Arg perigee
278.0473°
Mean anomaly
82.0295°
Rev number
3,137

§ Raw data

STARLINK-369911 68011U 26039AB  26262.67554793  .00014600  00000+0  53878-3 0  99942 68011  43.0005  33.1854 0000744 278.0473  82.0295 15.27595236 31375

JSON: /api/v1/satellites/68011 · /tle

For live sub-satellite position, see the globe view (requires WebGL).

§ Visibility from observer

Set your observer location to see the next 7 days of passes ≥ 10°. The values pass through the URL so the page stays shareable.

No JS? Fill the form by hand. The geolocation button needs JavaScript.